Retour au catalogue

FENGYUN 1C DEB *

LostPO
NORAD 47010·DEBRIS·🇨🇳 China

Lancé May 10, 1999 depuis Taiyuan Satellite Launch Center

Loading…

Prochains Passages (prochaines 24 heures)

TLE

PériméSource: Space-Track

Époque: Oct 8, 2022, 13:58 UTC

1 47010U 99025FAL 22281.58238750  .00002919  00000-0  26839-2 0  9991
2 47010  98.2963 201.7301 0299831  32.2337  89.8725 13.65041721520777

Suivez FENGYUN 1C DEB * en temps réel avec AllMySat

Download on the App Store